When you browse on this site, cookies collect data to enhance your experience and personalize the content and advertising you see.
Visit our Privacy Policy to learn more. By continuing to use the site, you agree to this use of cookies and data.
  • In Hungary
  • List of Countries
  • For 7 days
  • Water Temperature
  • Satellite Maps
  • Weather Map
  • News
  • Weather Widgets
  • user-avatar
    Login

    Hourly Weather Beverly

    Today, 27 June, Thursday

    Time Temperature Precipitation Wind Pressure Humidity
    00:00 +17°C° 0.1 mm 0 mps 763 mmHg 90%
    01:00 +17°C° 0.1 mm 0 mps 763 mmHg 91%
    02:00 +19°C° 0 mm 1 mps 763 mmHg 91%
    03:00 +19°C° 0 mm 1 mps 763 mmHg 92%
    04:00 +17°C° 0 mm 2 mps 763 mmHg 93%
    05:00 +19°C° 0 mm 1 mps 763 mmHg 91%
    06:00 +20°C° 0 mm 1 mps 763 mmHg 88%
    07:00 +21°C° 0 mm 1 mps 764 mmHg 85%
    08:00 +23°C° 0 mm 1 mps 764 mmHg 79%
    09:00 +24°C° 0 mm 1 mps 764 mmHg 73%
    10:00 +25°C° 0 mm 1 mps 764 mmHg 68%
    11:00 +27°C° 0 mm 2 mps 763 mmHg 63%
    12:00 +28°C° 0 mm 2 mps 763 mmHg 59%
    13:00 +29°C° 0 mm 3 mps 763 mmHg 55%
    14:00 +28°C° 0 mm 3 mps 763 mmHg 57%
    15:00 +27°C° 0 mm 3 mps 763 mmHg 60%
    16:00 +26°C° 0 mm 4 mps 762 mmHg 63%
    17:00 +25°C° 0 mm 3 mps 763 mmHg 69%
    18:00 +24°C° 0 mm 3 mps 763 mmHg 74%
    19:00 +22°C° 0 mm 3 mps 763 mmHg 79%
    20:00 +21°C° 0 mm 3 mps 763 mmHg 82%
    21:00 +21°C° 0 mm 2 mps 764 mmHg 84%
    22:00 +20°C° 0 mm 2 mps 764 mmHg 87%
    23:00 +20°C° 0 mm 2 mps 764 mmHg 87%

    Tomorrow, 28 June, Friday

    Time Temperature Precipitation Wind Pressure Humidity
    00:00 +20°C° 0 mm 2 mps 763 mmHg 86%
    01:00 +21°C° 0 mm 1 mps 763 mmHg 86%
    02:00 +19°C° 0 mm 2 mps 763 mmHg 86%
    03:00 +19°C° 0 mm 2 mps 763 mmHg 87%
    04:00 +19°C° 0 mm 2 mps 763 mmHg 88%
    05:00 +20°C° 0 mm 2 mps 763 mmHg 80%
    06:00 +23°C° 0 mm 2 mps 764 mmHg 73%
    07:00 +24°C° 0 mm 2 mps 764 mmHg 66%
    08:00 +26°C° 0 mm 2 mps 764 mmHg 57%
    09:00 +28°C° 0 mm 2 mps 764 mmHg 49%
    10:00 +30°C° 0 mm 2 mps 764 mmHg 41%
    11:00 +31°C° 0 mm 2 mps 763 mmHg 38%
    12:00 +32°C° 0 mm 2 mps 763 mmHg 36%
    13:00 +34°C° 0 mm 2 mps 763 mmHg 33%
    14:00 +32°C° 0 mm 2 mps 763 mmHg 35%
    15:00 +33°C° 0 mm 3 mps 763 mmHg 38%
    16:00 +31°C° 0 mm 3 mps 762 mmHg 40%
    17:00 +29°C° 0 mm 3 mps 763 mmHg 46%
    18:00 +27°C° 0 mm 3 mps 763 mmHg 52%
    19:00 +26°C° 0 mm 3 mps 763 mmHg 59%
    20:00 +25°C° 0 mm 3 mps 763 mmHg 59%
    21:00 +25°C° 0 mm 3 mps 763 mmHg 60%
    22:00 +25°C° 0 mm 2 mps 763 mmHg 61%
    23:00 +24°C° 0 mm 2 mps 763 mmHg 63%

    Day after tomorrow, 29 June, Saturday

    Time Temperature Precipitation Wind Pressure Humidity
    00:00 +24°C° 0 mm 2 mps 763 mmHg 65%
    01:00 +24°C° 0 mm 2 mps 763 mmHg 67%
    02:00 +23°C° 0 mm 2 mps 762 mmHg 68%
    03:00 +23°C° 0 mm 1 mps 762 mmHg 70%
    04:00 +23°C° 0 mm 1 mps 762 mmHg 71%
    05:00 +23°C° 0 mm 1 mps 762 mmHg 72%
    06:00 +23°C° 0 mm 1 mps 762 mmHg 72%
    07:00 +23°C° 0 mm 1 mps 762 mmHg 73%
    08:00 +25°C° 0 mm 2 mps 761 mmHg 65%
    09:00 +27°C° 0 mm 2 mps 761 mmHg 57%
    10:00 +30°C° 0 mm 3 mps 760 mmHg 49%
    11:00 +31°C° 0.1 mm 3 mps 759 mmHg 45%
    12:00 +34°C° 0.1 mm 3 mps 759 mmHg 42%
    13:00 +35°C° 0.1 mm 3 mps 758 mmHg 38%
    14:00 +34°C° 1.6 mm 3 mps 757 mmHg 45%
    15:00 +31°C° 1.6 mm 3 mps 757 mmHg 53%
    16:00 +30°C° 1.6 mm 2 mps 756 mmHg 61%
    17:00 +29°C° 0.9 mm 2 mps 756 mmHg 65%
    18:00 +28°C° 0.9 mm 2 mps 756 mmHg 69%
    19:00 +27°C° 0.9 mm 1 mps 756 mmHg 73%
    20:00 +26°C° 0.3 mm 2 mps 756 mmHg 76%
    21:00 +25°C° 0.3 mm 3 mps 756 mmHg 79%
    22:00 +25°C° 0.3 mm 3 mps 755 mmHg 82%
    23:00 +23°C° 0 mm 4 mps 755 mmHg 81%

    30 June, Sunday

    Time Temperature Precipitation Wind Pressure Humidity
    00:00 +23°C° 0 mm 4 mps 755 mmHg 81%
    01:00 +22°C° 0 mm 4 mps 755 mmHg 80%
    02:00 +22°C° 0 mm 4 mps 754 mmHg 79%
    03:00 +22°C° 0 mm 4 mps 754 mmHg 79%
    04:00 +21°C° 0 mm 4 mps 754 mmHg 78%
    05:00 +22°C° 0 mm 4 mps 754 mmHg 74%
    06:00 +23°C° 0 mm 4 mps 754 mmHg 69%
    07:00 +26°C° 0 mm 3 mps 753 mmHg 65%
    08:00 +26°C° 0.3 mm 4 mps 753 mmHg 64%
    09:00 +26°C° 0.3 mm 5 mps 753 mmHg 63%
    10:00 +27°C° 0.3 mm 6 mps 753 mmHg 62%
    11:00 +27°C° 0.5 mm 5 mps 752 mmHg 55%
    12:00 +28°C° 0.5 mm 5 mps 752 mmHg 48%
    13:00 +28°C° 0.5 mm 5 mps 752 mmHg 40%
    14:00 +28°C° 0 mm 6 mps 752 mmHg 39%
    15:00 +27°C° 0 mm 6 mps 752 mmHg 38%
    16:00 +26°C° 0 mm 6 mps 752 mmHg 37%
    17:00 +24°C° 0 mm 6 mps 753 mmHg 42%
    18:00 +23°C° 0 mm 6 mps 753 mmHg 47%
    19:00 +22°C° 0 mm 5 mps 753 mmHg 52%
    20:00 +22°C° 0 mm 5 mps 754 mmHg 53%
    21:00 +21°C° 0 mm 6 mps 754 mmHg 54%
    22:00 +20°C° 0 mm 6 mps 754 mmHg 55%
    23:00 +20°C° 0 mm 5 mps 754 mmHg 56%

    1 July, Monday

    Time Temperature Precipitation Wind Pressure Humidity
    00:00 +19°C° 0 mm 5 mps 754 mmHg 58%
    01:00 +19°C° 0 mm 4 mps 754 mmHg 59%
    02:00 +19°C° 0 mm 4 mps 755 mmHg 61%
    03:00 +19°C° 0 mm 4 mps 755 mmHg 62%
    04:00 +18°C° 0 mm 4 mps 755 mmHg 63%
    05:00 +19°C° 0 mm 4 mps 755 mmHg 61%
    06:00 +20°C° 0 mm 4 mps 755 mmHg 59%
    07:00 +21°C° 0 mm 3 mps 756 mmHg 57%
    08:00 +24°C° 0 mm 3 mps 756 mmHg 52%
    09:00 +25°C° 0 mm 2 mps 756 mmHg 48%
    10:00 +27°C° 0 mm 2 mps 756 mmHg 44%
    11:00 +28°C° 0 mm 2 mps 756 mmHg 42%
    12:00 +29°C° 0 mm 2 mps 756 mmHg 39%
    13:00 +30°C° 0 mm 3 mps 756 mmHg 37%
    14:00 +29°C° 0 mm 3 mps 755 mmHg 39%
    15:00 +28°C° 0 mm 3 mps 755 mmHg 42%
    16:00 +28°C° 0 mm 4 mps 755 mmHg 44%
    17:00 +27°C° 0 mm 4 mps 755 mmHg 49%
    18:00 +25°C° 0 mm 4 mps 755 mmHg 55%
    19:00 +23°C° 0 mm 5 mps 755 mmHg 60%
    20:00 +23°C° 0 mm 4 mps 755 mmHg 62%
    21:00 +22°C° 0 mm 4 mps 755 mmHg 64%
    22:00 +22°C° 0 mm 3 mps 755 mmHg 66%
    23:00 +22°C° 0 mm 3 mps 754 mmHg 66%

    2 July, Tuesday

    Time Temperature Precipitation Wind Pressure Humidity
    00:00 +23°C° 0 mm 2 mps 754 mmHg 67%
    01:00 +23°C° 0 mm 1 mps 753 mmHg 68%
    02:00 +22°C° 0.2 mm 1 mps 753 mmHg 71%
    03:00 +21°C° 0.2 mm 2 mps 753 mmHg 73%
    04:00 +20°C° 0.2 mm 2 mps 753 mmHg 76%
    05:00 +21°C° 0 mm 2 mps 753 mmHg 73%
    06:00 +23°C° 0 mm 2 mps 753 mmHg 71%
    07:00 +24°C° 0 mm 2 mps 753 mmHg 68%
    08:00 +26°C° 0 mm 2 mps 753 mmHg 62%
    09:00 +28°C° 0 mm 2 mps 753 mmHg 55%
    10:00 +29°C° 0 mm 2 mps 753 mmHg 49%
    11:00 +30°C° 0 mm 2 mps 753 mmHg 47%
    12:00 +31°C° 0 mm 3 mps 753 mmHg 45%
    13:00 +31°C° 0 mm 3 mps 753 mmHg 42%
    14:00 +31°C° 0 mm 3 mps 753 mmHg 44%
    15:00 +30°C° 0 mm 2 mps 753 mmHg 46%
    16:00 +29°C° 0 mm 2 mps 753 mmHg 47%
    17:00 +28°C° 0 mm 2 mps 753 mmHg 51%
    18:00 +27°C° 0 mm 2 mps 754 mmHg 55%
    19:00 +26°C° 0 mm 1 mps 754 mmHg 59%
    20:00 +25°C° 0 mm 2 mps 755 mmHg 57%
    21:00 +25°C° 0 mm 2 mps 755 mmHg 55%
    22:00 +24°C° 0 mm 3 mps 755 mmHg 52%
    23:00 +22°C° 0 mm 3 mps 755 mmHg 56%
    Show more